Weather in Vendinga

Russia / Komi Republic     63°27′32″N   47°58′09″E
temp.,
°C
wind,
m/s
gust,
m/s
humid.,
%
clouds,
%
prec.,
mm/h
press.,
hPa
HPBL,
m
10 august, wed
wed1000:00+11e227723 0.0 102430
03:00+10ne117960 0.0 102416
06:00+14ne2668100 0.0 1023202
09:00+19ne354377 0.0 10221093
12:00+20ne2240100 0.0 10221853
15:00+16se1261100 0.0 102164
18:00+15ssw2376100 0.0 102196
21:00+12sw2187100 0.0 102128
11 august, thu
thu1100:00+13wsw2474100 0.0 1020107
03:00+12w247748 0.0 101986
06:00+14wnw236512 0.0 1020146
09:00+20w35413 0.0 10191344
12:00+22wsw4635100 0.0 10172219
15:00+22w5737100 0.0 10162066
18:00+19wsw3953100 0.0 1015778
21:00+17sw41260100 0.0 1013600
12 august, fri
fri1200:00+17sw41263100 0.0 1011706
03:00+16wsw41273100 0.1 1010783
06:00+15wsw41182100 0.3 1010854
09:00+20w595434 0.4 10101770
12:00+21wnw693985 0.1 10092442
15:00+21nw693974 0.1 10102396
18:00+18nw5104761 0.0 10111755
21:00+13wnw3959100 0.0 1013363
13 august, sat
sat1300:00+13nw49570 0.0 10141007
03:00+10wnw411703 0.0 1016571
06:00+11w410695 0.0 1018496
09:00+16wnw594411 0.0 10181933
12:00+19nw69338 0.0 10182375
15:00+19nw583220 0.0 10192512
18:00+17n354441 0.0 10201078
21:00+11n116131 0.0 102111
14 august, sun
sun1400:00+8w00755 0.0 102210
03:00+7s11815 0.0 102210
06:00+10sw12665 0.0 1023147
09:00+17wsw23415 0.0 1022779
12:00+21wsw3535100 0.0 10201904
15:00+22wsw3536100 0.0 10191998
18:00+20sw3748100 0.0 1017473
21:00+15sw2670100 0.1 1017134